Terminal Aerodrome Forecast
Issued by NWS

Home | Current Version | Previous Version | Graphics & Text | Print | Product List | Glossary On
Versions: 1 2 3 4 5 6 7 8 9 10 11 12 13 14 15 16 17 18 19 20 21 22 23 24 25 26 27
000
FTUS43 KABR 030907 AAE
TAFPIR
TAF AMD
KPIR 030907Z 0309/0406 VRB04KT 3SM BR SKC
      TEMPO 0309/0310 6SM BR
     FM031000 VRB03KT 5SM BR BKN050
     FM031500 VRB05KT P6SM SKC=

USA.gov is the U.S. government's official web portal to all federal, state and local government web resources and services.